Location: Lewisville
(33.0462°N, 96.9942°W)
Time: 18:35:07
(UTC-06:00)

Hubble Space Telescope - Visible Passes

Search period start: 07 December 2021 00:00
Search period end: 17 December 2021 00:00
Orbit: 534 x 538 km, 28.5° (Epoch: 07 December)

Date Brightness Start Highest point End Pass type
(mag) Time Alt. Az. Time Alt. Az. Time Alt. Az.
12 Dec 3.1 19:22:06 10° SSW 19:23:35 14° S 19:23:35 14° S visible
13 Dec 2.7 19:10:24 10° SSW 19:13:08 19° SSE 19:13:08 19° SSE visible
14 Dec 2.4 18:58:50 10° SSW 19:02:03 22° SSE 19:02:39 21° SSE visible
15 Dec 2.3 18:47:21 10° SW 18:50:49 26° SSE 18:52:09 21° SE visible
16 Dec 2.1 18:35:58 10° SW 18:39:35 29° SSE 18:41:39 19° ESE visible
16 Dec 3.9 20:16:29 10° WSW 20:16:57 13° WSW 20:16:57 13° WSW visible
